Regional Weather Roundup
Issued by NWS Goodland, KS

Home | Current Version | Previous Version | Text Only | Print | Product List | Glossary Off
Versions: 1 2 3 4 5 6 7 8 9 10 11 12 13 14 15 16 17 18 19 20 21 22 23 24 25 26 27 28 29 30 31 32 33 34 35 36 37 38 39 40 41 42 43 44 45 46 47 48 49 50

126
ASUS43 KGLD 240408
RWRGLD

GOODLAND FORECAST AREA HOURLY WEATHER ROUNDUP
NATIONAL WEATHER SERVICE GOODLAND KS
1000 PM MDT SUN APR 23 2017

...OFFICIAL OBSERVATIONS...

CITY           SKY/WX    TMP DP  RH WIND       PRES   REMARKS
GOODLAND KS    CLOUDY    56  38  50 S24G32    29.71F
HILL CITY KS   CLOUDY    56  39  53 S15G25    29.80F
IMPERIAL NEB   PTCLDY    56  39  53 S18       29.70F
MCCOOK NEB     CLOUDY    57  33  40 S13G22    29.74F
AKRON CO       CLOUDY    52  39  61 SE10      29.67F
BURLINGTON CO  NOT AVBL
LIMON CO       CLOUDY    46  39  76 SE6       29.73S
$$

...UNOFFICIAL OBSERVATIONS...

CITY           SKY/WX    TMP DP  RH WIND       PRES   REMARKS
LENORA KS        N/A     55  32  41 MISG        N/A
NORTON KS      CLEAR     55  32  41 SE10G18   29.79S
SHARON SPRINGS   N/A     55  40  56 S22G29      N/A
TRENTON NEB      N/A     54  32  43 S9          N/A
KIT CARSON CO    N/A     58  39  50 MISG        N/A
YUMA CO        FAIR      52  39  62 SE10      29.67F
$$




USA.gov is the U.S. government's official web portal to all federal, state and local government web resources and services.